This is the latest recevied weather packets stored in our database for station/object N5PA. If no packets are shown the sender has not sent any weather packets the latest 10 day(s).
| Time | Temp. | Humidity | Pressure | Rain* | Wind** | Luminosity | Snow |
|---|---|---|---|---|---|---|---|
| 1777643406 | 15° C | 44% | 1014.6 hPa | 0 mm | - | 1020 W/m² | - |
| 1777642806 | 15° C | 45% | 1014.7 hPa | 0 mm | - | 1021 W/m² | - |
| 1777642506 | 15° C | 45% | 1014.6 hPa | 0 mm | - | 1020 W/m² | - |
| 1777642206 | 15° C | 44% | 1014.6 hPa | 0 mm | - | 1020 W/m² | - |
| 1777641906 | 15° C | 44% | 1014.5 hPa | 0 mm | - | 1020 W/m² | - |
| 1777641606 | 15° C | 44% | 1014.6 hPa | 0 mm | - | 1023 W/m² | - |
| 1777641307 | 15° C | 45% | 1014.7 hPa | 0 mm | - | 1023 W/m² | - |
| 1777639807 | 14.44° C | 43% | 1013.7 hPa | 0 mm | - | 1023 W/m² | - |
| 1777638006 | 15° C | 37% | 1013.4 hPa | 0.25 mm | - | 1020 W/m² | - |
| 1777637706 | 14.44° C | 37% | 1013.4 hPa | 0.25 mm | - | 1021 W/m² | - |
| 1777637406 | 14.44° C | 38% | 1013.5 hPa | 0.25 mm | - | 1023 W/m² | - |
| 1777637105 | 14.44° C | 38% | 1013.5 hPa | 0.25 mm | - | 1021 W/m² | - |
| 1777635606 | 14.44° C | 38% | 1013.7 hPa | 0 mm | - | 1021 W/m² | - |
| 1777635305 | 15° C | 38% | 1013.7 hPa | 0 mm | - | 1020 W/m² | - |
| 1777635006 | 15° C | 37% | 1013.1 hPa | 0 mm | - | 1021 W/m² | - |
| 1777634706 | 15° C | 37% | 1012.9 hPa | 0 mm | - | 1020 W/m² | - |
| 1777634406 | 15° C | 38% | 1013.6 hPa | 0 mm | - | 1020 W/m² | - |
| 1777634106 | 15° C | 38% | 1013.9 hPa | 0 mm | - | 1021 W/m² | - |
| 1777633806 | 15° C | 38% | 1014 hPa | 0 mm | - | 1020 W/m² | - |
| 1777633505 | 15° C | 37% | 1013.9 hPa | 0 mm | - | 1021 W/m² | - |
| 1777633204 | 15° C | 37% | 1013.9 hPa | 0 mm | - | 1020 W/m² | - |
| 1777632605 | 15° C | 37% | 1013.9 hPa | 0 mm | - | 1020 W/m² | - |
| 1777632006 | 15° C | 37% | 1013.8 hPa | 0 mm | - | 1020 W/m² | - |
| 1777631706 | 15° C | 37% | 1013.8 hPa | 0 mm | - | 1021 W/m² | - |
| 1777631406 | 15° C | 37% | 1014.1 hPa | 0 mm | - | 1018 W/m² | - |
* Rain latest hour (hover to see other rain measurements)
** Current wind speed in m/s (hover to see current wind gust speed)